When you browse on this site, cookies collect data to enhance your experience and personalize the content and advertising you see.
Visit our Privacy Policy to learn more. By continuing to use the site, you agree to this use of cookies and data.
  • In Hungary
  • List of Countries
  • For 7 days
  • Water Temperature
  • Weather Map
  • News
  • Weather Widgets
  • user-avatar
    Login

    Hourly Weather Suekeevo

    Today, 24 August, Saturday

    Time Temperature Precipitation Wind Pressure Humidity
    00:00 +15°C° 0 mm 1 mps 756 mmHg 86%
    01:00 +14°C° 0 mm 1 mps 756 mmHg 87%
    02:00 +14°C° 0 mm 1 mps 756 mmHg 87%
    03:00 +14°C° 0 mm 1 mps 757 mmHg 87%
    04:00 +13°C° 0 mm 1 mps 757 mmHg 86%
    05:00 +14°C° 0 mm 1 mps 757 mmHg 85%
    06:00 +14°C° 0 mm 1 mps 757 mmHg 83%
    07:00 +15°C° 0 mm 1 mps 757 mmHg 82%
    08:00 +16°C° 0 mm 1 mps 757 mmHg 77%
    09:00 +19°C° 0 mm 1 mps 757 mmHg 71%
    10:00 +19°C° 0 mm 2 mps 757 mmHg 66%
    11:00 +20°C° 0 mm 2 mps 757 mmHg 62%
    12:00 +20°C° 0 mm 2 mps 757 mmHg 59%
    13:00 +21°C° 0 mm 2 mps 756 mmHg 55%
    14:00 +21°C° 0 mm 2 mps 756 mmHg 55%
    15:00 +21°C° 0 mm 2 mps 756 mmHg 54%
    16:00 +23°C° 0 mm 2 mps 756 mmHg 54%
    17:00 +20°C° 0 mm 2 mps 755 mmHg 59%
    18:00 +20°C° 0 mm 1 mps 755 mmHg 64%
    19:00 +19°C° 0 mm 1 mps 755 mmHg 69%
    20:00 +18°C° 0 mm 1 mps 755 mmHg 71%
    21:00 +16°C° 0 mm 1 mps 754 mmHg 74%
    22:00 +15°C° 0 mm 1 mps 754 mmHg 76%
    23:00 +15°C° 0 mm 1 mps 754 mmHg 77%

    Tomorrow, 25 August, Sunday

    Time Temperature Precipitation Wind Pressure Humidity
    00:00 +15°C° 0 mm 1 mps 753 mmHg 78%
    01:00 +14°C° 0 mm 2 mps 753 mmHg 80%
    02:00 +14°C° 0 mm 2 mps 753 mmHg 81%
    03:00 +14°C° 0 mm 2 mps 753 mmHg 83%
    04:00 +12°C° 0 mm 3 mps 752 mmHg 84%
    05:00 +13°C° 0 mm 3 mps 752 mmHg 83%
    06:00 +13°C° 0 mm 3 mps 751 mmHg 82%
    07:00 +14°C° 0 mm 3 mps 751 mmHg 81%
    08:00 +15°C° 0 mm 4 mps 751 mmHg 77%
    09:00 +18°C° 0 mm 4 mps 751 mmHg 73%
    10:00 +19°C° 0 mm 5 mps 750 mmHg 69%
    11:00 +20°C° 0.1 mm 5 mps 750 mmHg 67%
    12:00 +21°C° 0.1 mm 6 mps 750 mmHg 65%
    13:00 +21°C° 0.1 mm 6 mps 749 mmHg 64%
    14:00 +21°C° 0.4 mm 6 mps 749 mmHg 64%
    15:00 +21°C° 0.4 mm 6 mps 749 mmHg 65%
    16:00 +21°C° 0.4 mm 6 mps 749 mmHg 65%
    17:00 +19°C° 0.1 mm 6 mps 749 mmHg 70%
    18:00 +16°C° 0.1 mm 5 mps 749 mmHg 76%
    19:00 +15°C° 0.1 mm 4 mps 749 mmHg 81%
    20:00 +14°C° 0 mm 4 mps 749 mmHg 83%
    21:00 +13°C° 0 mm 4 mps 749 mmHg 85%
    22:00 +12°C° 0 mm 5 mps 749 mmHg 87%
    23:00 +12°C° 0 mm 5 mps 749 mmHg 86%

    Day after tomorrow, 26 August, Monday

    Time Temperature Precipitation Wind Pressure Humidity
    00:00 +11°C° 0 mm 6 mps 749 mmHg 85%
    01:00 +11°C° 0 mm 7 mps 750 mmHg 84%
    02:00 +11°C° 0 mm 7 mps 750 mmHg 81%
    03:00 +11°C° 0 mm 7 mps 751 mmHg 78%
    04:00 +11°C° 0 mm 7 mps 751 mmHg 75%
    05:00 +10°C° 0 mm 7 mps 751 mmHg 75%
    06:00 +10°C° 0 mm 8 mps 752 mmHg 75%
    07:00 +9°C° 0 mm 8 mps 752 mmHg 76%
    08:00 +9°C° 0 mm 8 mps 752 mmHg 73%
    09:00 +10°C° 0 mm 8 mps 753 mmHg 71%
    10:00 +10°C° 0 mm 8 mps 753 mmHg 68%
    11:00 +11°C° 0 mm 8 mps 753 mmHg 66%
    12:00 +14°C° 0 mm 7 mps 753 mmHg 64%
    13:00 +15°C° 0 mm 7 mps 753 mmHg 61%
    14:00 +15°C° 0 mm 7 mps 754 mmHg 60%
    15:00 +15°C° 0 mm 7 mps 754 mmHg 59%
    16:00 +15°C° 0 mm 7 mps 754 mmHg 58%
    17:00 +14°C° 0 mm 6 mps 754 mmHg 63%
    18:00 +13°C° 0 mm 5 mps 754 mmHg 67%
    19:00 +12°C° 0 mm 3 mps 754 mmHg 71%
    20:00 +11°C° 0 mm 3 mps 754 mmHg 74%
    21:00 +10°C° 0 mm 3 mps 754 mmHg 78%
    22:00 +9°C° 0 mm 3 mps 754 mmHg 81%
    23:00 +9°C° 0 mm 3 mps 754 mmHg 84%

    27 August, Tuesday

    Time Temperature Precipitation Wind Pressure Humidity
    00:00 +8°C° 0 mm 3 mps 754 mmHg 87%
    01:00 +8°C° 0 mm 3 mps 753 mmHg 89%
    02:00 +8°C° 0 mm 3 mps 753 mmHg 91%
    03:00 +8°C° 0 mm 3 mps 753 mmHg 92%
    04:00 +8°C° 0 mm 3 mps 752 mmHg 93%
    05:00 +8°C° 0 mm 3 mps 752 mmHg 90%
    06:00 +8°C° 0 mm 4 mps 752 mmHg 87%
    07:00 +10°C° 0 mm 4 mps 751 mmHg 84%
    08:00 +12°C° 0 mm 5 mps 751 mmHg 79%
    09:00 +13°C° 0 mm 6 mps 750 mmHg 74%
    10:00 +15°C° 0 mm 7 mps 749 mmHg 69%
    11:00 +15°C° 0.1 mm 7 mps 749 mmHg 70%
    12:00 +16°C° 0.1 mm 7 mps 748 mmHg 71%
    13:00 +16°C° 0.1 mm 7 mps 747 mmHg 72%
    14:00 +16°C° 0.3 mm 7 mps 747 mmHg 74%
    15:00 +16°C° 0.3 mm 7 mps 746 mmHg 76%
    16:00 +16°C° 0.3 mm 6 mps 746 mmHg 77%
    17:00 +15°C° 0.7 mm 6 mps 745 mmHg 81%
    18:00 +15°C° 0.7 mm 6 mps 744 mmHg 85%
    19:00 +14°C° 0.7 mm 5 mps 744 mmHg 89%
    20:00 +13°C° 0.1 mm 5 mps 743 mmHg 90%
    21:00 +13°C° 0.1 mm 5 mps 743 mmHg 92%
    22:00 +12°C° 0.1 mm 4 mps 742 mmHg 93%
    23:00 +12°C° 1.6 mm 4 mps 741 mmHg 94%

    28 August, Wednesday

    Time Temperature Precipitation Wind Pressure Humidity
    00:00 +13°C° 1.6 mm 5 mps 741 mmHg 94%
    01:00 +13°C° 1.6 mm 5 mps 740 mmHg 95%
    02:00 +13°C° 1.8 mm 5 mps 740 mmHg 95%
    03:00 +12°C° 1.8 mm 4 mps 739 mmHg 96%
    04:00 +12°C° 1.8 mm 4 mps 738 mmHg 96%
    05:00 +12°C° 1.4 mm 4 mps 738 mmHg 96%
    06:00 +12°C° 1.4 mm 4 mps 737 mmHg 96%
    07:00 +12°C° 1.4 mm 3 mps 737 mmHg 95%
    08:00 +12°C° 0.5 mm 3 mps 737 mmHg 95%
    09:00 +13°C° 0.5 mm 2 mps 737 mmHg 95%
    10:00 +13°C° 0.5 mm 2 mps 737 mmHg 94%
    11:00 +13°C° 1.5 mm 2 mps 737 mmHg 94%
    12:00 +13°C° 1.5 mm 2 mps 737 mmHg 94%
    13:00 +12°C° 1.5 mm 3 mps 737 mmHg 94%
    14:00 +13°C° 0.3 mm 2 mps 737 mmHg 93%
    15:00 +13°C° 0.3 mm 2 mps 737 mmHg 93%
    16:00 +13°C° 0.3 mm 2 mps 736 mmHg 92%
    17:00 +13°C° 0.3 mm 2 mps 736 mmHg 93%
    18:00 +11°C° 0.3 mm 3 mps 736 mmHg 93%
    19:00 +11°C° 0.3 mm 4 mps 736 mmHg 94%
    20:00 +11°C° 0.1 mm 3 mps 736 mmHg 94%
    21:00 +11°C° 0.1 mm 3 mps 736 mmHg 95%
    22:00 +11°C° 0.1 mm 3 mps 736 mmHg 96%
    23:00 +10°C° 0.1 mm 3 mps 736 mmHg 96%

    29 August, Thursday

    Time Temperature Precipitation Wind Pressure Humidity
    00:00 +10°C° 0.1 mm 3 mps 736 mmHg 96%
    01:00 +10°C° 0.1 mm 3 mps 737 mmHg 96%
    02:00 +9°C° 0 mm 2 mps 736 mmHg 96%
    03:00 +9°C° 0 mm 2 mps 736 mmHg 96%
    04:00 +9°C° 0 mm 1 mps 736 mmHg 96%
    05:00 +9°C° 0.1 mm 2 mps 737 mmHg 96%
    06:00 +9°C° 0.1 mm 3 mps 737 mmHg 95%
    07:00 +9°C° 0.1 mm 3 mps 737 mmHg 95%
    08:00 +10°C° 0 mm 4 mps 737 mmHg 92%
    09:00 +11°C° 0 mm 4 mps 738 mmHg 88%
    10:00 +13°C° 0 mm 5 mps 738 mmHg 85%
    11:00 +14°C° 0 mm 5 mps 738 mmHg 80%
    12:00 +15°C° 0 mm 5 mps 738 mmHg 75%
    13:00 +16°C° 0 mm 5 mps 739 mmHg 70%
    14:00 +17°C° 0.1 mm 5 mps 739 mmHg 69%
    15:00 +17°C° 0.1 mm 5 mps 739 mmHg 69%
    16:00 +19°C° 0.1 mm 5 mps 740 mmHg 68%
    17:00 +17°C° 1 mm 5 mps 740 mmHg 74%
    18:00 +15°C° 1 mm 6 mps 740 mmHg 79%
    19:00 +14°C° 1 mm 6 mps 741 mmHg 85%
    20:00 +13°C° 0.2 mm 6 mps 741 mmHg 88%
    21:00 +10°C° 0.2 mm 6 mps 741 mmHg 90%
    22:00 +9°C° 0.2 mm 5 mps 742 mmHg 93%
    23:00 +9°C° 0 mm 5 mps 742 mmHg 92%
    Show more